sat.trackr.live / text

‹ back to catalog

UNKNOWN

NORAD 81745

UNKNOWN UNKNOWN UNKNOWN

§ Identity

Operator
Country
Launch date
Launch site
Launch vehicle
Mass (kg)
RCS (m²)

External: N2YO · Heavens-Above

§ Orbital elements

Epoch: 2026-05-23T09:54:23.270976Z

Period
99.92 min
Inclination
71.0007°
Eccentricity
0.0005833
Mean motion
14.41153515 rev/d
Perigee alt
750.5 km
Apogee alt
758.9 km
Semi-major
7,132.8 km
B*
4.6651e-4
RAAN
33.3889°
Arg perigee
307.0123°
Mean anomaly
53.0479°
Rev number
65,303

§ Raw data

UNKNOWN1 81745U          26143.41276934  .00001455  00000+0  46651-3 0  99962 81745  71.0007  33.3889 0005833 307.0123  53.0479 14.41153515653036

JSON: /api/v1/satellites/81745 · /tle

For live sub-satellite position, see the globe view (requires WebGL).

§ Visibility from observer

Set your observer location to see the next 7 days of passes ≥ 10°. The values pass through the URL so the page stays shareable.

No JS? Fill the form by hand. The geolocation button needs JavaScript.